VK2KGV-15 Weather Reports


time (UTC)temp
F
wind
direction
speed
knots
gust
knots
rain 1hr
in
rain 24hr
in
rain mn
in
humidity
%
barometer
mb
20260510060141 75 266 0.9 2.6 0.00 0.00 0.00 26 1022.6
20260510055138 77 99 1.7 2.6 0.00 0.00 0.00 26 1022.4
20260510053132 78 90 0.9 1.7 0.00 0.00 0.00 25 1022.5
20260510045119 78 167 1.7 3.5 0.00 0.00 0.00 26 1022.7
20260510043113 78 152 1.7 3.5 0.00 0.00 0.00 26 1022.9
20260510041107 78 112 0.9 5.2 0.00 0.00 0.00 27 1023.1
20260510033054 76 112 1.7 3.5 0.00 0.00 0.00 29 1023.4
20260510031048 77 104 7.0 7.0 0.00 0.00 0.00 28 1023.3
20260510015023 74 0 0.0 2.6 0.00 0.00 0.00 34 1024.8
20260510011011 72 343 0.0 4.3 0.00 0.00 0.00 36 1025.6
20260510001955 71 248 4.3 5.2 0.00 0.00 0.00 38 1025.9
20260509230933 67 180 0.0 1.7 0.00 0.00 0.00 51 1025.8
20260509224927 64 135 0.0 1.7 0.00 0.00 0.00 57 1026.3
20260509220915 55 112 0.0 0.0 0.00 0.00 0.00 75 1026.5
20260509212902 42 180 0.0 0.0 0.00 0.00 0.00 88 1027.2
20260509202844 35 180 0.0 0.0 0.00 0.00 0.00 87 1026.8
20260509200837 35 180 0.0 0.0 0.00 0.00 0.00 87 1026.5
20260509194831 36 180 0.0 0.0 0.00 0.00 0.00 87 1026.4
20260509192825 35 180 0.0 0.0 0.00 0.00 0.00 86 1026.1
20260509190819 35 180 0.0 0.0 0.00 0.00 0.00 86 1026.0
20260509184813 36 180 0.0 0.0 0.00 0.00 0.00 85 1025.8
20260509172748 36 180 0.0 0.0 0.00 0.00 0.00 82 1025.3
20260509170741 36 180 0.0 0.0 0.00 0.00 0.00 82 1025.1
20260509162729 36 180 0.0 0.0 0.00 0.00 0.00 80 1025.2
20260509160723 37 180 0.0 0.0 0.00 0.00 0.00 79 1025.3
20260509134639 40 180 0.0 0.0 0.00 0.00 0.00 71 1025.1
20260509130627 41 180 0.0 0.0 0.00 0.00 0.00 69 1025.0
20260509124621 41 180 0.0 0.0 0.00 0.00 0.00 67 1024.9
20260509114602 44 180 0.0 1.7 0.00 0.00 0.00 63 1024.4
20260509112556 44 180 0.0 0.0 0.00 0.00 0.00 60 1024.3
20260509110550 44 180 0.0 0.9 0.00 0.00 0.00 59 1024.3
20260509105547 44 180 0.0 0.0 0.00 0.00 0.00 59 1024.2
20260509104543 44 180 0.0 0.0 0.00 0.00 0.00 58 1024.3
20260509102537 45 180 0.0 0.0 0.00 0.00 0.00 56 1024.2
20260509095528 47 202 0.0 0.0 0.00 0.00 0.00 54 1024.0
20260509090512 50 225 0.0 0.0 0.00 0.00 0.00 49 1023.2
20260509084506 51 225 0.0 0.0 0.00 0.00 0.00 47 1022.8
20260509081457 54 225 0.0 0.0 0.00 0.00 0.00 44 1022.2
20260509080454 56 225 0.0 0.0 0.00 0.00 0.00 42 1022.0
20260509072441 63 0 0.0 0.0 0.00 0.00 0.00 36 1021.2
20260509062423 69 315 0.9 2.6 0.00 0.00 0.00 31 1020.1